| time (UTC) | temp C | wind direction | speed KPH | gust KPH | rain 1hr cm | rain 24hr cm | rain mn cm | humidity % | barometer mb |
| 20260906060023 | 20 | 180 | 0.0 | 0.0 | 0.00 | 0.08 | 0.00 | 96 | 1012.5 |
| 20260906054528 | 20 | 154 | 0.0 | 0.0 | 0.00 | 0.08 | 0.00 | 96 | 1012.6 |
| 20260906053036 | 20 | 92 | 0.0 | 3.2 | 0.00 | 0.08 | 0.00 | 95 | 1012.6 |
| 20260906051531 | 20 | 153 | 0.0 | 0.0 | 0.00 | 0.08 | 0.00 | 96 | 1012.9 |
| 20260906050007 | 20 | 153 | 0.0 | 0.0 | 0.00 | 0.08 | 0.00 | 95 | 1013.1 |
| 20260906044508 | 20 | 153 | 0.0 | 0.0 | 0.00 | 0.08 | 0.00 | 95 | 1013.2 |
| 20260906043008 | 20 | 153 | 0.0 | 0.0 | 0.00 | 0.08 | 0.00 | 95 | 1013.0 |
| 20260906041504 | 20 | 153 | 0.0 | 0.0 | 0.00 | 0.08 | 0.00 | 95 | 1013.3 |
| 20260906040023 | 21 | 153 | 0.0 | 0.0 | 0.00 | 0.08 | 0.00 | 95 | 1013.5 |
| 20260906034517 | 21 | 153 | 0.0 | 0.0 | 0.00 | 0.08 | 0.08 | 95 | 1013.4 |
| 20260906033013 | 21 | 153 | 0.0 | 0.0 | 0.00 | 0.08 | 0.08 | 95 | 1013.4 |
| 20260906031510 | 21 | 153 | 0.0 | 0.0 | 0.00 | 0.08 | 0.08 | 95 | 1013.3 |
| 20260906030006 | 21 | 153 | 0.0 | 0.0 | 0.00 | 0.08 | 0.08 | 95 | 1013.4 |
| 20260906024503 | 21 | 153 | 0.0 | 0.0 | 0.00 | 0.08 | 0.08 | 94 | 1013.2 |
| 20260906023025 | 21 | 153 | 0.0 | 0.0 | 0.00 | 0.08 | 0.08 | 94 | 1013.0 |
| 20260906021535 | 21 | 167 | 0.0 | 0.0 | 0.00 | 0.08 | 0.08 | 94 | 1013.0 |
| 20260906020020 | 22 | 167 | 0.0 | 0.0 | 0.00 | 0.08 | 0.08 | 94 | 1013.1 |
| 20260906014519 | 22 | 167 | 0.0 | 0.0 | 0.00 | 0.08 | 0.08 | 94 | 1013.0 |
| 20260906013026 | 22 | 167 | 0.0 | 0.0 | 0.00 | 0.08 | 0.08 | 93 | 1012.8 |
| 20260906011510 | 22 | 167 | 0.0 | 0.0 | 0.00 | 0.08 | 0.08 | 92 | 1012.6 |
| 20260906010004 | 23 | 167 | 0.0 | 0.0 | 0.00 | 0.08 | 0.08 | 92 | 1012.4 |
| 20260906004527 | 23 | 167 | 0.0 | 0.0 | 0.00 | 0.08 | 0.08 | 91 | 1012.3 |
| 20260906003025 | 23 | 167 | 0.0 | 0.0 | 0.00 | 0.08 | 0.08 | 90 | 1012.3 |
| 20260906001521 | 24 | 167 | 0.0 | 0.0 | 0.00 | 0.08 | 0.08 | 89 | 1012.1 |
| 20260906000022 | 25 | 167 | 0.0 | 0.0 | 0.00 | 0.08 | 0.08 | 87 | 1011.9 |
| 20260905234512 | 25 | 167 | 0.0 | 1.6 | 0.00 | 0.08 | 0.08 | 87 | 1011.8 |
| 20260905233017 | 26 | 142 | 0.0 | 0.0 | 0.00 | 0.08 | 0.08 | 83 | 1011.7 |
| 20260905231506 | 26 | 142 | 0.0 | 0.0 | 0.00 | 0.08 | 0.08 | 81 | 1011.6 |
| 20260905230029 | 26 | 142 | 0.0 | 1.6 | 0.00 | 0.08 | 0.08 | 78 | 1011.7 |
| 20260905224533 | 27 | 360 | 0.0 | 0.0 | 0.00 | 0.08 | 0.08 | 76 | 1011.5 |
| 20260905223033 | 27 | 360 | 0.0 | 0.0 | 0.00 | 0.08 | 0.08 | 74 | 1011.6 |
| 20260905221517 | 28 | 360 | 0.0 | 1.6 | 0.00 | 0.08 | 0.08 | 72 | 1011.6 |
| 20260905220012 | 28 | 5 | 0.0 | 4.8 | 0.00 | 0.08 | 0.08 | 70 | 1011.6 |
| 20260905214510 | 27 | 11 | 0.0 | 3.2 | 0.00 | 0.08 | 0.08 | 75 | 1012.0 |
| 20260905213008 | 27 | 15 | 1.6 | 4.8 | 0.00 | 0.08 | 0.08 | 75 | 1012.4 |
| 20260905211541 | 26 | 23 | 1.6 | 4.8 | 0.00 | 0.08 | 0.08 | 77 | 1012.1 |
| 20260905210029 | 25 | 20 | 0.0 | 3.2 | 0.00 | 0.08 | 0.08 | 83 | 1012.1 |
| 20260905204524 | 24 | 313 | 0.0 | 3.2 | 0.00 | 0.08 | 0.08 | 84 | 1012.3 |
| 20260905203034 | 22 | 123 | 0.0 | 3.2 | 0.00 | 0.08 | 0.08 | 90 | 1012.7 |
| 20260905201519 | 22 | 154 | 0.0 | 4.8 | 0.00 | 0.08 | 0.08 | 88 | 1012.6 |
| 20260905200035 | 22 | 221 | 0.0 | 0.0 | 0.00 | 0.08 | 0.08 | 90 | 1012.8 |
| 20260905194536 | 22 | 221 | 0.0 | 1.6 | 0.00 | 0.08 | 0.08 | 88 | 1013.1 |
| 20260905193032 | 22 | 164 | 1.6 | 6.4 | 0.00 | 0.08 | 0.08 | 88 | 1012.9 |
| 20260905191541 | 22 | 74 | 0.0 | 8.0 | 0.00 | 0.08 | 0.08 | 86 | 1013.5 |
| 20260905190043 | 22 | 319 | 1.6 | 4.8 | 0.08 | 0.08 | 0.08 | 90 | 1012.0 |
| 20260905184522 | 23 | 146 | 0.0 | 3.2 | 0.08 | 0.08 | 0.08 | 89 | 1012.5 |
| 20260905183023 | 23 | 150 | 3.2 | 8.0 | 0.08 | 0.08 | 0.08 | 83 | 1012.8 |
| 20260905181534 | 27 | 162 | 3.2 | 12.9 | 0.08 | 0.08 | 0.08 | 68 | 1012.3 |
| 20260905180031 | 32 | 342 | 14.5 | 32.2 | 0.00 | 0.00 | 0.00 | 54 | 1013.5 |
| 20260905174530 | 33 | 307 | 8.0 | 17.7 | 0.00 | 0.00 | 0.00 | 52 | 1013.2 |
| 20260905173027 | 33 | 319 | 6.4 | 8.0 | 0.00 | 0.00 | 0.00 | 56 | 1013.6 |
| 20260905171530 | 33 | 19 | 4.8 | 9.7 | 0.00 | 0.00 | 0.00 | 58 | 1013.6 |
| 20260905170021 | 33 | 295 | 1.6 | 14.5 | 0.00 | 0.00 | 0.00 | 56 | 1013.7 |
| 20260905164516 | 33 | 335 | 4.8 | 12.9 | 0.00 | 0.00 | 0.00 | 56 | 1013.8 |
| 20260905163015 | 33 | 304 | 1.6 | 6.4 | 0.00 | 0.00 | 0.00 | 58 | 1014.1 |
| 20260905161511 | 32 | 244 | 0.0 | 14.5 | 0.00 | 0.00 | 0.00 | 58 | 1014.2 |
| 20260905160015 | 33 | 350 | 3.2 | 8.0 | 0.00 | 0.00 | 0.00 | 55 | 1014.5 |
| 20260905154531 | 33 | 329 | 0.0 | 3.2 | 0.00 | 0.00 | 0.00 | 58 | 1014.3 |
| 20260905153053 | 32 | 339 | 1.6 | 6.4 | 0.00 | 0.00 | 0.00 | 62 | 1014.5 |
| 20260905151523 | 31 | 21 | 4.8 | 6.4 | 0.00 | 0.00 | 0.00 | 63 | 1014.3 |
| 20260905150017 | 31 | 330 | 3.2 | 4.8 | 0.00 | 0.00 | 0.00 | 68 | 1014.4 |
| 20260905144522 | 30 | 176 | 0.0 | 3.2 | 0.00 | 0.00 | 0.00 | 71 | 1014.3 |
| 20260905143012 | 29 | 329 | 3.2 | 4.8 | 0.00 | 0.00 | 0.00 | 74 | 1014.4 |
| 20260905141509 | 28 | 332 | 0.0 | 3.2 | 0.00 | 0.00 | 0.00 | 75 | 1014.4 |
| 20260905140031 | 27 | 318 | 0.0 | 4.8 | 0.00 | 0.00 | 0.00 | 79 | 1014.4 |
| 20260905134527 | 27 | 331 | 0.0 | 3.2 | 0.00 | 0.00 | 0.00 | 83 | 1014.6 |
| 20260905133027 | 26 | 294 | 0.0 | 4.8 | 0.00 | 0.00 | 0.00 | 87 | 1014.5 |
| 20260905131535 | 25 | 316 | 3.2 | 4.8 | 0.00 | 0.00 | 0.00 | 90 | 1014.5 |
| 20260905130019 | 23 | 254 | 0.0 | 0.0 | 0.00 | 0.00 | 0.00 | 95 | 1014.6 |
| 20260905124532 | 22 | 135 | 0.0 | 1.6 | 0.00 | 0.00 | 0.00 | 97 | 1014.7 |
| 20260905123014 | 22 | 93 | 0.0 | 0.0 | 0.00 | 0.00 | 0.00 | 97 | 1014.6 |
| 20260905121532 | 21 | 92 | 0.0 | 0.0 | 0.00 | 0.00 | 0.00 | 97 | 1014.6 |
| 20260905120033 | 21 | 93 | 0.0 | 0.0 | 0.00 | 0.00 | 0.00 | 96 | 1014.5 |
| 20260905114528 | 21 | 93 | 0.0 | 0.0 | 0.00 | 0.00 | 0.00 | 96 | 1014.5 |
| 20260905113028 | 21 | 93 | 0.0 | 3.2 | 0.00 | 0.00 | 0.00 | 96 | 1014.2 |
| 20260905111521 | 21 | 167 | 0.0 | 0.0 | 0.00 | 0.00 | 0.00 | 96 | 1014.0 |
| 20260905110017 | 21 | 167 | 0.0 | 0.0 | 0.00 | 0.00 | 0.00 | 96 | 1013.7 |
| 20260905104510 | 21 | 167 | 0.0 | 0.0 | 0.00 | 0.00 | 0.00 | 96 | 1013.7 |
| 20260905103037 | 21 | 167 | 0.0 | 0.0 | 0.00 | 0.00 | 0.00 | 96 | 1013.6 |
| 20260905101533 | 21 | 167 | 0.0 | 0.0 | 0.00 | 0.00 | 0.00 | 96 | 1013.5 |
| 20260905100029 | 21 | 167 | 0.0 | 0.0 | 0.00 | 0.00 | 0.00 | 96 | 1013.5 |
| 20260905094527 | 21 | 167 | 0.0 | 0.0 | 0.00 | 0.00 | 0.00 | 96 | 1013.4 |
| 20260905093039 | 21 | 167 | 0.0 | 0.0 | 0.00 | 0.00 | 0.00 | 96 | 1013.5 |
| 20260905091518 | 21 | 167 | 0.0 | 0.0 | 0.00 | 0.00 | 0.00 | 96 | 1013.4 |
| 20260905090014 | 21 | 121 | 0.0 | 0.0 | 0.00 | 0.00 | 0.00 | 96 | 1013.5 |
| 20260905084534 | 21 | 121 | 0.0 | 0.0 | 0.00 | 0.00 | 0.00 | 96 | 1013.4 |
| 20260905083034 | 21 | 121 | 0.0 | 0.0 | 0.00 | 0.00 | 0.00 | 96 | 1013.7 |
| 20260905081531 | 21 | 121 | 0.0 | 0.0 | 0.00 | 0.00 | 0.00 | 95 | 1013.7 |
| 20260905080039 | 22 | 121 | 0.0 | 0.0 | 0.00 | 0.00 | 0.00 | 96 | 1013.9 |
| 20260905074524 | 22 | 121 | 0.0 | 0.0 | 0.00 | 0.00 | 0.00 | 95 | 1013.9 |
| 20260905073009 | 22 | 121 | 0.0 | 0.0 | 0.00 | 0.00 | 0.00 | 95 | 1014.1 |
| 20260905071507 | 22 | 121 | 0.0 | 0.0 | 0.00 | 0.00 | 0.00 | 95 | 1014.1 |
| 20260905070014 | 22 | 121 | 0.0 | 0.0 | 0.00 | 0.00 | 0.00 | 95 | 1014.5 |
| 20260905064508 | 22 | 121 | 0.0 | 0.0 | 0.00 | 0.00 | 0.00 | 95 | 1014.5 |
| 20260905063012 | 22 | 121 | 0.0 | 0.0 | 0.00 | 0.00 | 0.00 | 95 | 1014.7 |
| 20260905061512 | 22 | 121 | 0.0 | 0.0 | 0.00 | 0.00 | 0.00 | 95 | 1014.8 |